Regional Weather Roundup
Issued by NWS

Home | Current Version | Previous Version | Text Only | Print | Product List | Glossary Off
Versions: 1 2 3 4 5 6 7 8 9 10 11 12 13 14 15 16 17 18 19 20 21 22 23 24 25 26 27 28

000
ASUS45 KSLC 211910
RWRUT

UTAH REGIONAL WEATHER ROUNDUP
NATIONAL WEATHER SERVICE SALT LAKE CITY UT
100 PM MDT TUE MAR 21 2017

UTZ001>011-023>025-212000-

NORTHERN UTAH

CITY           SKY/WX    TMP DP  RH WIND       PRES   REMARKS
BRIGHAM CITY     N/A     67  28  23 S5        29.94F
DUGWAY         MOSUNNY   70  31  24 S23G30    29.92F
HILL AFB       MOSUNNY   67  35  30 S13       29.95F
LOGAN          PTSUNNY   66  34  30 S9        29.94F
OGDEN          PTSUNNY   67  35  30 SW13G20   29.94F
SALT LAKE CITY CLOUDY    70  33  25 S23G32    29.93F
WENDOVER       MOSUNNY   72  28  20 S20       29.88F
HEBER CITY     CLOUDY    64  27  24 S15G24    30.00F

$$

UTZ011>015-024>027-212000-

CENTRAL/NORTHEAST UTAH

CITY           SKY/WX    TMP DP  RH WIND       PRES   REMARKS
PROVO AIRPORT  PTSUNNY   63  38  39 SW15      30.00S
MOAB/CANYONLAN CLOUDY    72  30  21 SW14G20   30.03F
DELTA          PTSUNNY   70  27  19 S22       29.98F
PRICE          PTSUNNY   60  32  34 VRB7      30.09F
RICHFIELD      MOSUNNY   68  27  21 S8        30.03F
ROOSEVELT      SUNNY     59  37  44 CALM      30.08F
VERNAL         CLOUDY    62  37  39 SE6       30.05F

$$

UTZ013>016-019>022-027-212000-

SOUTHERN UTAH

CITY           SKY/WX    TMP DP  RH WIND       PRES   REMARKS
BRYCE CANYON   MOSUNNY   58  27  30 SW12G18   30.17F
CEDAR CITY     MOSUNNY   68  28  22 SW31G41   30.03F
MILFORD        MOSUNNY   70  25  18 SW22G33   29.98F
ST GEORGE      MOCLDY    78  26  14 SW28G35   29.98F
HANKSVILLE     PTSUNNY   72  27  18 SW15G23   30.05F
KANAB          MOSUNNY   70  32  24 S15       30.12F
BLANDING       SUNNY     67  31  26 S7        30.23F

$$

REGIONAL REPORTS     COLORADO/ARIZONA

CITY           SKY/WX    TMP DP  RH WIND       PRES   REMARKS
CRAIG, CO      CLOUDY    68  23  18 SW21G31   30.07F
GRAND JUNCTION SUNNY     73  28  18 CALM      30.05F
RIFLE, CO      CLOUDY    68  31  25 W13       30.09F
MONTROSE, CO   CLOUDY    65  31  28 NE5       30.14F
CORTEZ, CO     CLOUDY    70  29  21 SW16G23   30.18F
COLORADO CITY    N/A     73  32  21 S10G16    30.11S
PAGE, AZ       MOSUNNY   72  28  19 NE6       30.05F
GRAND CANYON   SUNNY     66  27  23 SW20G29   30.19F
KINGMAN, AZ    MOSUNNY   76  11   8 SW16      30.04F
FLAGSTAFF, AZ  SUNNY     63  26  24 SW15G25   30.23S

$$

REGIONAL REPORTS    NEVADA/IDAHO/WYOMING

CITY           SKY/WX    TMP DP  RH WIND       PRES   REMARKS
LAS VEGAS, NV  PTSUNNY   77  33  20 S12G26    29.93F
ELY, NY        SUNNY     63  27  25 S22G31    29.97F
ELKO, NV       PTSUNNY   66  18  15 S12G23    29.87F
POCATELLO, ID  SUNNY     68  35  29 S23G33    29.89F
BURLEY, ID     MOSUNNY   68  29  23 SW17      29.84F
FORT BRIDGER,    N/A     51  38  61 N5        30.10F
EVANSTON, WY   CLOUDY    59  25  27 SW24G33   30.04F
ROCK SPRINGS,  CLOUDY    58  33  39 SW3       30.07F
KEMMERER, WY     N/A     54  32  43 CALM      30.08F

$$




USA.gov is the U.S. government's official web portal to all federal, state and local government web resources and services.